Wind_Speed
35 34 34 35 35 34 34 33 32 32 31 30 29 28 29 28 27 27 26 26 26 26 25 25 24 24 24 24 24 24 25 25 26 27 28 28 30 31 32 32 32 33 33 34
35 33 33 35 35 34 34 33 33 34 34 32 30 28 29 29 28 28 26 26 26 26 26 25 25 24 24 25 25 25 25 26 27 27 28 29 30 31 32 33 33 34 34 35
33 32 34 35 34 33 32 33 33 34 35 34 32 29 28 29 29 28 27 26 26 26 26 25 25 24 24 25 25 26 26 27 27 28 29 30 31 32 33 34 34 35 35 36
34 32 34 33 33 33 32 33 35 36 36 34 33 30 26 28 28 28 28 27 26 26 26 25 25 25 25 25 26 26 27 28 29 30 30 31 32 33 34 35 35 36 37 38
32 31 33 33 33 33 33 34 36 36 36 34 32 34 26 28 28 29 28 26 26 25 25 25 24 25 25 25 26 27 28 29 30 31 32 33 34 35 36 37 38 38 39 39
32 32 33 33 34 35 34 35 37 37 37 35 32 34 28 26 28 28 27 26 25 25 25 24 24 24 25 26 27 28 29 30 31 33 34 35 36 37 38 39 39 40 40 41
32 33 33 33 34 35 35 35 37 37 37 35 33 33 28 26 27 27 27 26 25 25 24 24 24 25 26 27 28 29 30 32 33 35 36 37 38 40 41 41 41 41 42 42
33 33 33 33 33 35 35 36 36 37 37 35 33 32 27 25 26 26 26 25 24 24 24 24 25 26 27 28 29 31 32 33 35 37 38 40 41 42 42 43 43 44 44 44
32 32 32 32 33 34 34 34 34 37 37 35 33 31 28 26 25 26 25 25 24 24 24 25 26 27 28 29 30 32 33 35 37 38 40 41 43 44 45 45 45 45 46 46
31 31 31 31 32 33 33 33 34 35 36 35 33 30 29 26 25 25 25 25 24 24 25 25 27 28 29 31 32 34 35 37 39 40 42 43 45 46 46 47 47 47 48 48
31 32 30 31 30 31 33 33 34 35 35 34 32 28 26 26 26 25 25 24 24 25 25 26 28 29 31 32 34 35 37 39 41 43 44 46 47 47 48 48 48 49 49 50
30 30 30 30 31 33 34 33 33 34 34 34 32 28 26 27 27 26 25 24 25 26 27 28 29 30 32 33 35 37 39 41 43 45 46 47 48 49 49 49 50 51 51 52
29 30 29 30 31 32 32 31 32 33 34 33 32 27 25 27 28 28 27 27 27 27 28 29 30 31 33 35 38 40 42 44 45 46 47 48 49 50 50 51 52 53 53 54
29 29 28 28 27 29 30 31 32 33 33 31 29 26 26 28 28 28 29 29 29 29 30 31 32 34 36 38 40 42 44 45 47 48 49 49 50 51 52 53 54 55 55 56
28 27 26 27 28 29 29 30 30 31 30 30 27 27 27 29 30 30 30 31 31 32 33 34 35 37 39 40 42 43 45 46 47 48 49 50 52 53 54 55 56 56 57 58
27 26 26 27 27 28 30 29 29 30 30 30 30 28 28 31 31 31 32 33 34 35 36 37 39 40 41 42 43 45 46 47 48 49 50 51 52 54 55 56 57 57 58 58
27 27 27 28 28 30 31 28 29 30 30 31 31 28 29 31 31 32 34 35 37 38 39 40 41 42 44 44 45 46 47 48 49 50 51 52 53 54 55 56 57 58 58 59
29 29 29 29 30 33 28 27 29 30 29 29 29 29 30 31 33 34 36 37 39 40 41 42 43 44 44 45 46 46 47 48 49 51 52 53 54 55 56 57 57 58 59 61
30 30 31 32 33 32 29 28 28 29 30 29 29 30 31 33 35 35 37 38 40 41 42 43 44 44 45 45 46 47 48 49 51 52 52 53 54 55 56 57 58 59 60 62
31 31 33 33 33 33 28 28 29 31 30 28 30 32 34 35 36 36 38 39 41 42 43 44 44 45 45 46 47 48 49 50 51 51 52 53 54 55 56 57 59 61 63 65
29 30 32 32 33 32 27 28 29 31 28 29 32 33 35 36 36 37 39 40 42 43 44 44 44 44 45 46 47 48 49 50 50 50 51 53 54 56 57 59 61 63 66 68
29 30 31 32 33 29 27 29 30 30 30 32 33 34 35 36 37 38 40 41 42 42 42 43 43 44 45 46 47 48 49 49 50 51 52 54 56 57 59 61 64 66 69 71
29 30 31 32 31 30 30 31 31 32 33 33 34 35 36 37 38 39 39 40 40 41 42 43 44 44 45 46 47 48 48 49 50 52 53 55 57 59 62 64 67 69 72 76
30 31 32 32 31 31 31 32 33 33 34 35 36 37 37 38 38 38 39 40 40 41 42 43 44 45 45 46 47 48 50 51 52 53 55 57 59 62 64 67 70 74 77 80
30 31 31 31 31 31 32 33 34 35 36 37 37 38 38 38 38 39 39 40 41 42 43 44 44 45 46 46 48 49 50 51 53 55 57 60 62 65 68 71 74 78 81 84
29 30 30 31 31 33 33 34 35 36 37 37 38 38 38 39 39 39 40 41 42 43 43 44 44 45 46 47 48 50 51 53 55 58 60 63 66 69 72 75 78 80 83 84
Wind_Direction
242 242 242 244 245 247 250 252 253 255 257 258 261 266 269 271 273 273 272 271 271 272 272 271 271 271 271 273 275 276 278 280 282 284 286 288 290 291 292 293 293 293 292 291
242 242 242 243 245 247 249 251 252 255 258 260 260 263 267 270 271 272 272 270 270 270 270 268 268 268 269 270 272 274 276 278 281 283 286 289 291 293 294 294 294 293 292 291
242 240 242 244 246 246 248 250 252 256 259 262 262 263 266 267 269 271 270 269 268 268 267 267 266 266 267 268 270 273 275 278 280 283 286 289 292 293 294 295 294 293 292 292
241 240 242 245 247 248 249 251 252 255 258 262 265 265 264 267 269 269 269 268 268 266 266 265 264 265 266 268 270 273 276 278 281 284 287 290 292 293 294 295 295 294 292 291
242 242 244 245 246 249 249 251 253 256 259 261 266 269 264 266 268 269 269 269 267 265 264 265 265 265 266 268 270 273 276 279 282 285 287 290 292 294 295 295 295 294 293 291
242 242 243 244 245 248 249 251 254 256 259 262 264 269 269 267 268 269 269 268 266 265 264 264 264 265 267 269 272 275 278 280 283 285 288 290 292 294 295 295 295 294 293 292
243 244 244 244 246 248 249 251 254 257 259 263 264 266 270 268 266 267 267 266 265 264 263 264 264 266 268 271 273 276 279 281 284 286 288 290 292 294 295 296 296 295 294 292
242 244 245 245 246 247 247 249 253 257 260 261 263 265 267 265 265 266 266 265 263 263 264 264 266 268 270 273 275 277 280 283 285 287 289 291 293 294 295 295 295 295 294 293
243 244 243 245 245 245 247 249 252 256 259 260 261 265 266 265 264 265 265 264 264 265 265 266 268 270 272 274 277 279 282 284 287 288 290 292 293 294 295 295 295 294 293 293
241 242 241 243 244 245 246 247 249 253 258 261 263 264 266 265 265 264 264 264 265 266 267 269 271 273 275 277 279 281 283 286 288 289 290 292 293 294 295 295 294 294 294 294
241 243 242 241 243 243 243 244 247 251 255 260 263 264 266 266 265 264 264 265 266 268 270 272 274 276 278 280 281 283 285 287 288 290 291 292 294 294 294 294 294 294 294 294
241 243 243 241 240 241 243 244 246 250 255 258 261 262 264 266 266 267 266 267 268 270 273 275 277 279 281 282 284 286 287 288 289 291 292 293 294 294 294 294 294 294 294 294
241 244 244 243 243 244 245 246 249 252 253 256 260 264 263 264 265 266 268 269 271 272 274 276 279 281 283 284 285 287 288 290 291 292 292 293 294 294 294 295 295 295 295 295
242 245 247 248 248 247 246 245 247 250 253 257 260 262 261 263 263 266 269 271 274 276 277 279 281 283 285 286 287 288 290 291 291 292 293 294 294 294 294 295 295 295 295 295
243 245 246 246 246 245 245 245 246 249 252 255 256 257 258 262 265 268 271 273 276 278 280 282 284 286 287 288 290 291 292 292 293 293 294 294 295 295 295 295 295 296 296 296
243 244 245 245 246 245 245 244 245 248 252 255 256 257 259 262 266 270 273 275 277 280 282 284 286 288 289 291 292 293 293 294 294 294 295 295 295 295 295 295 296 296 297 298
241 243 244 245 247 250 249 248 247 249 252 255 258 259 260 264 268 271 274 277 279 282 284 286 287 289 291 292 294 294 294 295 295 295 295 295 295 295 296 296 297 297 298 299
239 241 244 246 249 252 257 252 252 254 255 257 260 261 263 266 269 272 275 278 280 283 285 287 289 290 292 293 294 294 294 295 295 296 296 296 296 296 297 297 298 298 299 300
240 243 246 249 252 256 256 257 259 258 256 257 261 264 265 268 271 275 277 279 281 284 286 288 290 291 292 293 294 295 295 296 296 297 297 297 297 297 298 299 299 300 301 302
241 244 249 253 255 258 258 257 259 259 259 260 263 265 267 270 274 277 279 281 283 285 287 289 291 292 293 294 295 296 296 297 297 298 298 298 299 299 299 300 301 302 302 303
242 247 252 255 257 259 260 260 259 261 264 262 264 267 270 273 276 278 280 282 284 286 288 289 291 292 294 294 295 296 297 298 298 299 299 300 300 300 301 302 303 303 304 304
242 247 251 255 258 262 263 263 263 265 265 266 268 270 273 275 277 279 281 284 286 287 289 290 292 294 295 296 297 298 298 299 299 300 300 301 301 302 303 303 304 305 305 305
244 248 252 254 258 262 263 265 266 267 268 269 272 274 276 278 280 282 284 286 288 289 291 293 294 296 297 298 298 299 299 300 300 301 301 302 303 304 304 305 305 306 306 306
245 248 251 254 258 262 263 265 267 268 270 272 275 277 279 282 284 285 286 288 290 291 293 295 297 297 298 299 299 300 300 301 302 302 303 304 304 305 305 306 306 307 307 307
245 247 251 256 259 261 263 265 267 269 271 274 276 279 282 285 286 288 289 291 292 294 295 296 297 298 299 300 300 301 302 303 303 304 304 305 305 306 306 307 307 308 308 308
246 250 254 258 259 261 262 264 267 269 272 275 279 281 284 287 288 289 291 292 293 295 296 297 299 299 300 301 302 303 304 304 305 305 305 306 306 307 307 307 308 308 309 309
Height
5816 5820 5823 5824 5826 5828 5830 5832 5833 5833 5834 5835 5836 5836 5835 5834 5834 5833 5833 5831 5830 5829 5828 5827 5827 5826 5825 5824 5824 5823 5822 5820 5819 5817 5816 5814 5811 5809 5806 5803 5800 5797 5795 5792
5810 5814 5816 5817 5819 5821 5823 5825 5826 5826 5827 5828 5829 5830 5829 5828 5828 5827 5826 5825 5824 5823 5822 5821 5821 5820 5819 5819 5818 5817 5816 5815 5813 5811 5809 5807 5804 5802 5799 5796 5793 5790 5787 5784
5803 5808 5807 5810 5812 5814 5816 5818 5819 5820 5819 5820 5822 5824 5823 5822 5821 5820 5820 5819 5818 5817 5816 5815 5815 5814 5813 5813 5812 5811 5810 5808 5807 5805 5803 5800 5798 5795 5792 5788 5785 5782 5779 5776
5795 5799 5801 5803 5806 5808 5810 5811 5812 5812 5813 5814 5815 5816 5818 5815 5815 5814 5813 5812 5811 5810 5810 5809 5808 5808 5807 5807 5806 5805 5803 5802 5800 5798 5796 5793 5790 5787 5784 5781 5777 5774 5770 5767
5788 5792 5794 5796 5799 5800 5803 5803 5804 5805 5805 5807 5808 5807 5813 5810 5808 5807 5807 5806 5805 5804 5804 5803 5802 5802 5801 5800 5799 5798 5797 5795 5793 5791 5788 5786 5783 5780 5776 5773 5769 5765 5762 5758
5781 5784 5786 5789 5791 5793 5795 5796 5797 5797 5798 5801 5802 5800 5804 5804 5802 5801 5800 5800 5798 5798 5797 5797 5796 5796 5795 5794 5793 5791 5790 5788 5786 5783 5780 5777 5774 5771 5768 5764 5760 5756 5753 5749
5774 5776 5779 5782 5784 5786 5788 5790 5790 5790 5791 5794 5794 5793 5797 5796 5795 5794 5794 5793 5792 5792 5791 5791 5790 5789 5788 5787 5786 5784 5782 5780 5778 5775 5772 5769 5766 5762 5758 5755 5751 5747 5743 5739
5765 5769 5772 5774 5777 5778 5779 5781 5783 5784 5784 5786 5786 5786 5790 5789 5788 5787 5787 5786 5786 5785 5785 5784 5783 5783 5781 5780 5779 5777 5774 5772 5769 5766 5763 5760 5756 5752 5749 5745 5741 5736 5732 5728
5757 5761 5764 5766 5768 5770 5772 5774 5776 5776 5775 5777 5779 5780 5782 5782 5782 5781 5780 5780 5779 5779 5778 5777 5777 5775 5774 5773 5771 5769 5766 5763 5760 5757 5754 5750 5747 5743 5739 5734 5730 5726 5722 5717
5750 5753 5756 5758 5760 5762 5765 5767 5767 5767 5768 5769 5771 5773 5775 5775 5775 5775 5774 5773 5773 5772 5771 5770 5769 5768 5766 5765 5763 5760 5757 5754 5751 5748 5744 5740 5736 5732 5728 5724 5719 5715 5710 5706
5742 5745 5749 5751 5753 5756 5757 5759 5760 5760 5761 5762 5764 5769 5767 5767 5767 5767 5767 5767 5766 5766 5765 5763 5762 5760 5758 5756 5754 5751 5748 5745 5741 5737 5734 5730 5725 5721 5717 5712 5708 5703 5699 5694
5735 5737 5740 5744 5746 5747 5749 5751 5753 5755 5755 5755 5756 5763 5760 5759 5759 5759 5760 5760 5759 5759 5757 5756 5754 5752 5750 5747 5745 5742 5738 5735 5731 5727 5723 5719 5714 5710 5705 5701 5696 5691 5686 5681
5728 5730 5733 5735 5740 5741 5742 5745 5746 5747 5747 5748 5750 5756 5753 5752 5751 5752 5752 5752 5752 5751 5750 5748 5746 5744 5741 5738 5735 5732 5728 5724 5720 5716 5712 5707 5703 5698 5693 5688 5683 5678 5673 5668
5722 5724 5727 5730 5732 5734 5736 5738 5738 5739 5740 5742 5744 5746 5745 5744 5744 5744 5744 5744 5743 5742 5741 5739 5737 5735 5732 5729 5726 5722 5718 5714 5710 5705 5701 5696 5691 5686 5681 5676 5671 5665 5660 5655
5715 5718 5720 5722 5724 5726 5728 5730 5731 5732 5734 5735 5737 5737 5738 5736 5736 5736 5736 5736 5735 5733 5732 5730 5728 5725 5722 5719 5715 5711 5707 5703 5698 5694 5689 5684 5679 5674 5669 5663 5658 5652 5646 5640
5709 5712 5714 5715 5717 5719 5720 5722 5724 5725 5726 5727 5728 5730 5730 5728 5728 5728 5728 5727 5726 5724 5722 5720 5718 5715 5712 5708 5704 5700 5696 5691 5687 5682 5677 5672 5667 5662 5656 5650 5645 5639 5633 5626
5703 5705 5708 5709 5711 5711 5713 5717 5717 5718 5720 5720 5720 5723 5721 5721 5720 5720 5719 5718 5716 5714 5713 5710 5707 5704 5701 5697 5693 5689 5685 5680 5675 5670 5665 5660 5655 5649 5643 5637 5631 5625 5619 5612
5696 5698 5700 5702 5704 5704 5711 5710 5710 5711 5712 5713 5713 5714 5714 5713 5712 5711 5710 5708 5707 5704 5702 5699 5697 5693 5690 5686 5682 5678 5673 5668 5664 5658 5653 5647 5642 5636 5630 5624 5617 5611 5605 5598
5689 5692 5693 5695 5696 5697 5701 5703 5703 5704 5704 5706 5706 5706 5705 5704 5703 5703 5701 5699 5697 5694 5692 5689 5686 5682 5679 5675 5670 5666 5661 5657 5651 5646 5640 5635 5629 5623 5617 5610 5604 5597 5590 5583
5682 5684 5687 5688 5688 5690 5696 5696 5695 5696 5696 5699 5697 5697 5696 5695 5695 5694 5691 5689 5687 5684 5681 5678 5675 5671 5667 5663 5659 5654 5649 5644 5639 5633 5628 5622 5615 5609 5603 5597 5590 5582 5575 5568
5675 5677 5679 5680 5680 5682 5688 5688 5688 5689 5691 5690 5689 5688 5687 5686 5686 5684 5682 5679 5676 5674 5671 5667 5664 5660 5656 5652 5647 5642 5637 5632 5626 5621 5615 5609 5602 5596 5589 5582 5575 5567 5560 5552
5668 5670 5671 5672 5673 5678 5680 5679 5680 5680 5680 5680 5679 5679 5678 5677 5676 5674 5671 5669 5666 5663 5660 5656 5652 5648 5644 5639 5635 5630 5625 5619 5614 5608 5602 5596 5589 5582 5575 5567 5560 5551 5542 5534
5661 5664 5664 5666 5669 5670 5670 5670 5670 5671 5671 5670 5670 5669 5669 5667 5665 5663 5661 5658 5655 5652 5648 5644 5641 5636 5632 5627 5622 5617 5612 5607 5601 5595 5589 5582 5575 5568 5560 5551 5543 5534 5524 5514
5653 5654 5656 5658 5660 5661 5661 5661 5661 5661 5661 5660 5660 5659 5658 5657 5655 5653 5650 5647 5644 5640 5637 5633 5629 5624 5620 5615 5610 5605 5599 5594 5588 5582 5575 5568 5561 5553 5545 5535 5526 5516 5505 5494
5645 5646 5647 5649 5652 5652 5652 5652 5652 5652 5651 5651 5650 5649 5648 5646 5644 5641 5639 5636 5632 5629 5625 5621 5617 5612 5607 5602 5597 5592 5587 5581 5575 5568 5561 5553 5545 5537 5529 5520 5509 5497 5486 5471
5637 5639 5641 5642 5643 5643 5644 5643 5643 5642 5642 5641 5640 5639 5637 5635 5633 5630 5627 5624 5621 5617 5613 5609 5605 5600 5595 5590 5585 5579 5573 5567 5561 5554 5546 5538 5530 5520 5511 5501 5493 5480 5466 5454